User: anonymous   Login
Location: Bats
(43.6587°N, 0.4584°W)
Time: 19:36:03
(UTC+00:00)
Language:

Cosmos 2369 Rocket - Orbit

View from above orbital plane
View from above orbital plane
View from above satellite
View from above satellite

Ground track
Ground track

The orbit is defined by the following mean orbital elements,

1 26070U          26073.46350521 +.00000000 +00000-0 -75490-4 0 00002
2 26070  71.0004  87.7988 0016486 183.0564 177.0461 14.15824818    06
Epoch (UTC): 14 March 2026 11:07:26
Eccentricity: 0.0016486
inclination: 71.0004°
perigee height: 828 km
apogee height: 851 km
right ascension of ascending node: 87.7988°
argument of perigee: 183.0564°
revolutions per day: 14.15824818
mean anomaly at epoch: 177.0461°

The dashed part of the orbit path shows where the satellite is in the earth's shadow,  

DLR